Weather History for Mount Pleasant, MI

Change the Weather History Date:

Sunday, March 24, 2013

  Actual Average (KAMN) Record (KAMN)
Temperature  
Mean Temperature 30 °F -  
Max Temperature 36 °F 47 °F 69 °F (2003)
Min Temperature 25 °F 24 °F 5 °F (1983)
Degree Days  
Heating Degree Days 34    
Moisture  
Dew Point 23 °F    
Average Humidity 73    
Maximum Humidity 88    
Minimum Humidity 58    
Precipitation  
Precipitation 0.00 in - - ()
Sea Level Pressure  
Sea Level Pressure 29.90 in    
Wind  
Wind Speed 5 mph (NE)    
Max Wind Speed 17 mph    
Max Gust Speed 25 mph    
Visibility 10 miles    
Events      
Averages and records for this station are not official NWS values.
T = Trace of Precipitation, MM = Missing Value Source: NWS Daily Summary

Daily Weather History Graph

Daily Weather History Graph

Search for Another Location

Airport:

Trip Planner

Search our weather history database for the weather conditions in past years. The results will help you decide how hot, cold, wet, or windy it might be!

Date:

Astronomy

Mar. 24, 2013 Rise Set
Actual Time 7:34 AM EDT 7:56 PM EDT
Civil Twilight 7:05 AM EDT 8:25 PM EDT
Nautical Twilight 6:32 AM EDT 8:59 PM EDT
Astronomical Twilight 5:57 AM EDT 9:33 PM EDT
Moon 5:20 PM EDT (3/24) 5:48 AM EDT (3/24)
Length of Visible Light 13h 19m
Length of Day
12h 21m
Waxing Gibbous, 91% of the Moon is Illuminated
Mar 24
Waxing Gibbous
Mar 27
Full
Apr 3
Last Quarter
Apr 10
New
Apr 18
First Quarter

Hourly Weather History & Observations

Time (EDT) Temp. Windchill Dew Point Humidity Pressure Visibility Wind Dir Wind Speed Gust Speed Precip Events Conditions
12:14 AM 29.5 °F - 22.8 °F 76% 30.05 in 10.0 mi Calm Calm - N/A   Clear
12:35 AM 28.0 °F - 22.8 °F 81% 30.04 in 10.0 mi Calm Calm - N/A   Clear
12:55 AM 28.9 °F - 23.2 °F 79% 30.03 in 10.0 mi Calm Calm - N/A   Clear
1:14 AM 28.9 °F - 23.0 °F 78% 30.03 in 10.0 mi Calm Calm - N/A   Clear
1:35 AM 28.2 °F - 23.0 °F 81% 30.03 in 10.0 mi Calm Calm - N/A   Clear
1:55 AM 27.1 °F - 22.8 °F 84% 30.02 in 10.0 mi Calm Calm - N/A   Clear
2:14 AM 26.4 °F - 22.3 °F 84% 30.03 in 10.0 mi Calm Calm - N/A   Clear
2:35 AM 25.7 °F - 22.1 °F 86% 30.03 in 10.0 mi Calm Calm - N/A   Mostly Cloudy
2:55 AM 25.0 °F - 21.9 °F 88% 30.03 in 10.0 mi Calm Calm - N/A   Scattered Clouds
3:35 AM 27.5 °F 22.2 °F 22.8 °F 83% 30.02 in 10.0 mi NNW 4.6 mph - N/A   Mostly Cloudy
3:54 AM 27.9 °F 24.0 °F 22.1 °F 79% 30.01 in 10.0 mi NNW 3.5 mph - N/A   Clear
4:15 AM 27.5 °F 23.6 °F 22.1 °F 80% 30.01 in 10.0 mi NNW 3.5 mph - N/A   Clear
4:35 AM 27.7 °F 23.8 °F 22.1 °F 80% 30.01 in 10.0 mi NNW 3.5 mph - N/A   Clear
4:54 AM 27.5 °F - 22.1 °F 80% 30.02 in 10.0 mi Calm Calm - N/A   Clear
5:15 AM 26.4 °F - 21.7 °F 82% 30.01 in 10.0 mi Calm Calm - N/A   Clear
5:35 AM 26.6 °F - 22.3 °F 84% 30.00 in 10.0 mi Calm Calm - N/A   Scattered Clouds
5:54 AM 26.8 °F - 22.6 °F 84% 30.00 in 10.0 mi Calm Calm - N/A   Mostly Cloudy
6:15 AM 27.5 °F - 22.6 °F 82% 30.00 in 10.0 mi Calm Calm - N/A   Overcast
6:35 AM 28.4 °F - 23.0 °F 80% 30.00 in 10.0 mi Calm Calm - N/A   Overcast
6:54 AM 28.4 °F - 23.7 °F 83% 30.00 in 10.0 mi Calm Calm - N/A   Overcast
7:15 AM 28.4 °F - 23.7 °F 83% 30.01 in 10.0 mi Calm Calm - N/A   Overcast
7:35 AM 28.4 °F - 23.9 °F 83% 30.01 in 10.0 mi Calm Calm - N/A   Overcast
7:54 AM 28.6 °F - 24.1 °F 83% 30.01 in 10.0 mi Calm Calm - N/A   Overcast
8:15 AM 29.3 °F 24.3 °F 25.0 °F 84% 30.00 in 10.0 mi ENE 4.6 mph - N/A   Overcast
8:35 AM 29.8 °F 24.9 °F 25.5 °F 84% 30.00 in 10.0 mi ENE 4.6 mph - N/A   Overcast
8:54 AM 30.0 °F 25.2 °F 25.7 °F 84% 29.99 in 10.0 mi ENE 4.6 mph - N/A   Overcast
9:15 AM 30.2 °F 25.4 °F 25.7 °F 83% 29.98 in 10.0 mi NE 4.6 mph - N/A   Overcast
9:34 AM 30.9 °F 27.5 °F 25.7 °F 81% 29.98 in 10.0 mi NE 3.5 mph - N/A   Overcast
9:55 AM 31.3 °F 26.6 °F 25.3 °F 79% 29.98 in 10.0 mi NE 4.6 mph - N/A   Overcast
10:15 AM 31.8 °F 26.2 °F 25.0 °F 76% 29.98 in 10.0 mi NE 5.8 mph - N/A   Overcast
10:34 AM 32.0 °F 26.4 °F 24.4 °F 74% 29.97 in 10.0 mi NE 5.8 mph - N/A   Overcast
10:55 AM 32.0 °F 24.8 °F 23.7 °F 71% 29.96 in 10.0 mi NE 8.1 mph - N/A   Overcast
11:15 AM 32.4 °F 24.6 °F 24.1 °F 72% 29.96 in 10.0 mi NE 9.2 mph - N/A   Overcast
11:34 AM 32.5 °F 26.2 °F 23.9 °F 70% 29.95 in 10.0 mi NE 6.9 mph - N/A   Overcast
11:55 AM 32.5 °F 25.5 °F 23.7 °F 70% 29.93 in 10.0 mi NE 8.1 mph - N/A   Mostly Cloudy
12:15 PM 32.7 °F 25.7 °F 24.1 °F 71% 29.93 in 10.0 mi NE 8.1 mph - N/A   Clear
12:34 PM 32.9 °F 26.7 °F 25.3 °F 74% 29.92 in 10.0 mi NE 6.9 mph - N/A   Scattered Clouds
12:55 PM 33.3 °F 23.7 °F 25.9 °F 74% 29.90 in 10.0 mi NE 13.8 mph 17.3 mph N/A   Scattered Clouds
1:15 PM 33.8 °F 24.3 °F 26.4 °F 74% 29.89 in 10.0 mi ENE 13.8 mph 20.7 mph N/A   Mostly Cloudy
1:34 PM 34.2 °F 25.2 °F 25.0 °F 69% 29.88 in 10.0 mi ENE 12.7 mph 19.6 mph N/A   Mostly Cloudy
1:55 PM 34.9 °F 24.9 °F 23.4 °F 63% 29.87 in 10.0 mi ENE 16.1 mph 23.0 mph N/A   Mostly Cloudy
2:15 PM 36.1 °F 26.5 °F 22.8 °F 58% 29.86 in 10.0 mi ENE 16.1 mph 20.7 mph N/A   Scattered Clouds
2:34 PM 36.3 °F 26.4 °F 22.6 °F 58% 29.85 in 10.0 mi NE 17.3 mph 25.3 mph N/A   Scattered Clouds
2:55 PM 35.6 °F 26.6 °F 24.6 °F 64% 29.84 in 10.0 mi NE 13.8 mph 20.7 mph N/A   Mostly Cloudy
3:15 PM 36.1 °F 26.9 °F 25.0 °F 64% 29.83 in 10.0 mi ENE 15.0 mph 19.6 mph N/A   Overcast
3:34 PM 35.2 °F 26.2 °F 24.3 °F 64% 29.83 in 10.0 mi ENE 13.8 mph 23.0 mph N/A   Overcast
3:55 PM 35.1 °F 26.4 °F 24.6 °F 66% 29.81 in 10.0 mi ENE 12.7 mph 16.1 mph N/A   Overcast
4:15 PM 35.4 °F 26.0 °F 23.7 °F 62% 29.80 in 10.0 mi East 15.0 mph 20.7 mph N/A   Overcast
4:35 PM 35.4 °F 26.4 °F 23.9 °F 63% 29.80 in 10.0 mi ENE 13.8 mph 18.4 mph N/A   Overcast
4:55 PM 34.7 °F 27.5 °F 23.4 °F 63% 29.79 in 10.0 mi ENE 9.2 mph - N/A   Overcast
5:14 PM 34.7 °F 26.4 °F 23.0 °F 62% 29.79 in 10.0 mi NE 11.5 mph 17.3 mph N/A   Overcast
5:35 PM 34.9 °F 26.2 °F 23.4 °F 63% 29.78 in 10.0 mi ENE 12.7 mph 17.3 mph N/A   Overcast
5:54 PM 35.2 °F 27.1 °F 23.4 °F 62% 29.77 in 10.0 mi NE 11.5 mph 17.3 mph N/A   Overcast
6:15 PM 35.1 °F 27.9 °F 23.9 °F 64% 29.76 in 10.0 mi ENE 9.2 mph 17.3 mph N/A   Mostly Cloudy
6:35 PM 34.5 °F 24.8 °F 23.2 °F 63% 29.76 in 10.0 mi East 15.0 mph - N/A   Mostly Cloudy
6:54 PM 33.3 °F 24.6 °F 22.3 °F 64% 29.76 in 10.0 mi East 11.5 mph 20.7 mph N/A   Scattered Clouds
7:15 PM 32.5 °F 23.7 °F 22.5 °F 66% 29.76 in 10.0 mi East 11.5 mph - N/A   Mostly Cloudy
7:35 PM 32.0 °F 23.0 °F 22.3 °F 67% 29.76 in 10.0 mi East 11.5 mph 20.7 mph N/A   Scattered Clouds
7:54 PM 31.1 °F 21.9 °F 22.3 °F 70% 29.76 in 10.0 mi ENE 11.5 mph 17.3 mph N/A   Scattered Clouds
8:15 PM 30.4 °F 22.9 °F 22.1 °F 71% 29.76 in 10.0 mi ENE 8.1 mph - N/A   Clear
8:35 PM 30.6 °F 22.4 °F 21.9 °F 70% 29.76 in 10.0 mi ENE 9.2 mph - N/A   Scattered Clouds
8:54 PM 30.2 °F 21.3 °F 21.7 °F 71% 29.76 in 10.0 mi ENE 10.4 mph 17.3 mph N/A   Scattered Clouds
9:15 PM 30.7 °F 20.4 °F 21.4 °F 68% 29.76 in 10.0 mi ENE 13.8 mph 18.4 mph N/A   Clear
9:35 PM 30.6 °F 20.7 °F 21.4 °F 69% 29.76 in 10.0 mi ENE 12.7 mph - N/A   Mostly Cloudy
9:54 PM 30.6 °F 20.7 °F 20.8 °F 67% 29.76 in 10.0 mi NE 12.7 mph 21.9 mph N/A   Overcast
10:15 PM 30.6 °F 21.2 °F 21.2 °F 68% 29.76 in 10.0 mi NE 11.5 mph 17.3 mph N/A   Overcast
10:35 PM 30.6 °F 20.7 °F 21.7 °F 70% 29.76 in 10.0 mi NE 12.7 mph - N/A   Overcast
10:54 PM 30.9 °F 21.7 °F 22.1 °F 70% 29.75 in 10.0 mi NNE 11.5 mph - N/A   Overcast
11:15 PM 30.9 °F 21.7 °F 22.6 °F 71% 29.74 in 10.0 mi NNE 11.5 mph 16.1 mph N/A   Overcast
11:34 PM 31.1 °F 21.9 °F 22.8 °F 71% 29.74 in 10.0 mi NE 11.5 mph 17.3 mph N/A   Overcast
11:55 PM 30.7 °F 22.6 °F 23.0 °F 73% 29.74 in 10.0 mi NNE 9.2 mph 17.3 mph N/A   Overcast